Location: Marcé
(47.5801°N, 0.3280°W)
Time: 04:05:21
(UTC+01:00)

Vanguard 3 - Pass Details

Date: 07 December 2021
Orbit: 508 x 3260 km, 33.3° (Epoch: 19 January)

Event Time Altitude Azimuth Distance (km) Brightness Sun altitude
Exits shadow 06:01:36 20° 243° (WSW) 5,335 10.8 -25.0°
Maximum altitude 06:15:39 50° 182° (S) 3,578 10.3 -22.6°
Drops below altitude 10° 06:30:06 10° 113° (ESE) 4,898 12.3 -20.2°
Sets 06:33:26 0° 108° (ESE) 5,585 13.0 -19.7°
